Tracking 23726 objects as of 24-Sep-2021
HD Live streaming from Space Station
objects crossing your sky now

ONEWEB-0311

Track ONEWEB-0311 now!
10-day predictions
ONEWEB-0311 is classified as:


NORAD ID: 49097
Int'l Code: 2021-075Y
Perigee: 538.8 km
Apogee: 565.2 km
Inclination: 87.4 °
Period: 95.5 minutes
Semi major axis: 6923 km
RCS: Unknown
Launch date: August 21, 2021
Source: United Kingdom (UK)
Launch site: TYURATAM MISSILE AND SPACE COMPLEX (TTMTR)
aabbcc
Your satellite tracking list
Your tracking list is empty




NASA's NSSDC Master Catalog

Two Line Element Set (TLE):
1 49097U 21075Y   21267.16667824 -.00889444  00000-0 -63533-1 0  9992
2 49097  87.4370 354.7435 0019009 170.3117 318.4999 15.07164199  6372
Source of the keplerian elements: AFSPC